Moorhead, MN

4:17 PM CDT on October 23, 2017 (GMT -0500)
Moorhead Municipal

Weather History for KJKJ - December, 2012

Change the Weather History Date:

Wednesday, December 5, 2012

  Actual Average (KFAR) Record (KFAR)
Temperature  
Mean Temperature 27 °F -  
Max Temperature 39 °F 25 °F 54 °F (1939)
Min Temperature 15 °F 6 °F -18 °F (1972)
Degree Days  
Heating Degree Days 38    
Moisture  
Dew Point 19 °F    
Average Humidity 66    
Maximum Humidity 93    
Minimum Humidity 48    
Precipitation  
Precipitation 0.00 in - - ()
Sea Level Pressure  
Sea Level Pressure 29.97 in    
Wind  
Wind Speed 13 mph (SSE)    
Max Wind Speed 29 mph    
Max Gust Speed 34 mph    
Visibility 10 miles    
Events      
Averages and records for this station are not official NWS values.
T = Trace of Precipitation, MM = Missing Value Source: NWS Daily Summary

Daily Weather History Graph

Daily Weather History Graph

Search for Another Location

Airport or City:

Trip Planner

Search our weather history database for the weather conditions in past years. The results will help you decide how hot, cold, wet, or windy it might be!

Date:

Astronomy

Dec. 05, 2012 Rise Set
Actual Time 7:56 AM CST 4:38 PM CST
Civil Twilight 7:21 AM CST 5:13 PM CST
Nautical Twilight 6:43 AM CST 5:51 PM CST
Astronomical Twilight 6:06 AM CST 6:28 PM CST
Moon 11:49 PM CST (12/5) 12:02 PM CST (12/5)
Length of Visible Light 9h 52m
Length of Day
8h 42m
Waning Gibbous, 59% of the Moon is Illuminated
Dec 5
Waning Gibbous
Dec 6
Last Quarter
Dec 13
New
Dec 19
First Quarter
Dec 28
Full

Hourly Weather History & Observations

Time (CST) Temp. Windchill Dew Point Humidity Pressure Visibility Wind Dir Wind Speed Gust Speed Precip Events Conditions
12:15 AM 15.8 °F 10.2 °F 12.2 °F 86% 30.34 in 10.0 mi SE 3.5 mph - N/A   Clear
12:34 AM 15.8 °F 10.2 °F 14.0 °F 93% 30.34 in 10.0 mi SE 3.5 mph - N/A   Clear
12:55 AM 17.6 °F 10.7 °F 14.0 °F 86% 30.34 in 10.0 mi SE 4.6 mph - N/A   Clear
1:15 AM 15.8 °F 7.2 °F 14.0 °F 93% 30.34 in 10.0 mi SSE 5.8 mph - N/A   Clear
1:55 AM 17.6 °F 7.3 °F 15.8 °F 93% 30.33 in 10.0 mi SSE 8.1 mph - N/A   Clear
2:15 AM 17.6 °F 6.4 °F 15.8 °F 93% 30.32 in 10.0 mi SSE 9.2 mph - N/A   Clear
2:34 AM 17.6 °F 7.3 °F 15.8 °F 93% 30.32 in 10.0 mi SE 8.1 mph - N/A   Clear
2:55 AM 17.6 °F 6.4 °F 15.8 °F 93% 30.30 in 10.0 mi SE 9.2 mph - N/A   Clear
3:15 AM 19.4 °F 9.5 °F 15.8 °F 86% 30.29 in 10.0 mi SSE 8.1 mph - N/A   Clear
3:35 AM 19.4 °F 8.6 °F 15.8 °F 86% 30.29 in 10.0 mi SSE 9.2 mph - N/A   Clear
3:55 AM 19.4 °F 8.6 °F 15.8 °F 86% 30.27 in 10.0 mi SSE 9.2 mph - N/A   Clear
4:15 AM 19.4 °F 8.6 °F 15.8 °F 86% 30.25 in 10.0 mi SSE 9.2 mph 16.1 mph N/A   Clear
4:35 AM 19.4 °F 7.2 °F 15.8 °F 86% 30.24 in 10.0 mi SSE 11.5 mph - N/A   Clear
4:55 AM 19.4 °F 7.2 °F 15.8 °F 86% 30.23 in 10.0 mi SSE 11.5 mph - N/A   Clear
5:14 AM 19.4 °F 7.2 °F 15.8 °F 86% 30.22 in 10.0 mi SSE 11.5 mph 18.4 mph N/A   Clear
5:35 AM 21.2 °F 8.3 °F 15.8 °F 80% 30.22 in 10.0 mi SSE 13.8 mph 19.6 mph N/A   Clear
5:55 AM 21.2 °F 8.9 °F 15.8 °F 80% 30.21 in 10.0 mi SSE 12.7 mph 19.6 mph N/A   Clear
6:14 AM 21.2 °F 8.9 °F 15.8 °F 80% 30.21 in 10.0 mi SSE 12.7 mph 18.4 mph N/A   Clear
6:35 AM 21.2 °F 8.3 °F 15.8 °F 80% 30.20 in 10.0 mi SSE 13.8 mph 17.3 mph N/A   Clear
6:55 AM 21.2 °F 8.3 °F 15.8 °F 80% 30.19 in 10.0 mi SSE 13.8 mph 18.4 mph N/A   Clear
8:35 AM 23.0 °F 9.6 °F 15.8 °F 74% 30.13 in 10.0 mi SSE 16.1 mph 19.6 mph N/A   Clear
8:55 AM 23.0 °F 8.7 °F 15.8 °F 74% 30.12 in 10.0 mi SSE 18.4 mph 24.2 mph N/A   Clear
9:15 AM 24.8 °F 10.7 °F 15.8 °F 69% 30.10 in 10.0 mi SSE 19.6 mph 27.6 mph N/A   Clear
9:35 AM 24.8 °F 10.7 °F 15.8 °F 69% 30.08 in 10.0 mi SSE 19.6 mph 29.9 mph N/A   Clear
9:55 AM 24.8 °F 10.0 °F 14.0 °F 64% 30.06 in 10.0 mi SSE 21.9 mph 32.2 mph N/A   Clear
10:15 AM 26.6 °F 10.6 °F 14.0 °F 59% 30.04 in 10.0 mi SSE 28.8 mph 34.5 mph N/A   Clear
10:35 AM 28.4 °F 14.1 °F 14.0 °F 55% 30.03 in 10.0 mi SSE 24.2 mph 33.4 mph N/A   Clear
10:55 AM 28.4 °F 14.7 °F 14.0 °F 55% 30.03 in 10.0 mi South 21.9 mph 28.8 mph N/A   Clear
11:15 AM 30.2 °F 18.1 °F 14.0 °F 51% 30.03 in 10.0 mi South 18.4 mph 25.3 mph N/A   Clear
11:35 AM 30.2 °F 17.1 °F 15.8 °F 55% 30.00 in 10.0 mi SSE 21.9 mph 28.8 mph N/A   Clear
11:54 AM 32.0 °F 19.5 °F 15.8 °F 51% 29.99 in 10.0 mi South 21.9 mph 28.8 mph N/A   Clear
12:15 PM 32.0 °F 19.8 °F 15.8 °F 51% 29.97 in 10.0 mi South 20.7 mph 29.9 mph N/A   Clear
12:34 PM 33.8 °F 20.8 °F 17.6 °F 52% 29.95 in 10.0 mi SSE 26.5 mph 31.1 mph N/A   Clear
12:55 PM 33.8 °F 22.2 °F 17.6 °F 52% 29.94 in 10.0 mi South 20.7 mph 28.8 mph N/A   Clear
1:15 PM 33.8 °F 21.9 °F 17.6 °F 52% 29.93 in 10.0 mi South 21.9 mph 27.6 mph N/A   Clear
1:35 PM 33.8 °F 21.9 °F 17.6 °F 52% 29.92 in 10.0 mi SSE 21.9 mph 25.3 mph N/A   Clear
2:15 PM 35.6 °F 24.0 °F 17.6 °F 48% 29.87 in 10.0 mi South 23.0 mph 28.8 mph N/A   Clear
2:35 PM 35.6 °F 24.0 °F 19.4 °F 52% 29.85 in 10.0 mi South 23.0 mph 31.1 mph N/A   Clear
2:55 PM 35.6 °F 25.9 °F 19.4 °F 52% 29.85 in 10.0 mi South 16.1 mph 31.1 mph N/A   Clear
3:15 PM 35.6 °F 25.9 °F 19.4 °F 52% 29.84 in 10.0 mi South 16.1 mph 25.3 mph N/A   Clear
3:35 PM 35.6 °F 24.8 °F 19.4 °F 52% 29.83 in 10.0 mi South 19.6 mph 26.5 mph N/A   Clear
3:55 PM 35.6 °F 24.5 °F 19.4 °F 52% 29.81 in 10.0 mi South 20.7 mph 25.3 mph N/A   Clear
4:15 PM 35.6 °F 24.5 °F 21.2 °F 56% 29.80 in 10.0 mi South 20.7 mph 27.6 mph N/A   Clear
4:35 PM 35.6 °F 25.2 °F 21.2 °F 56% 29.80 in 10.0 mi SSE 18.4 mph 24.2 mph N/A   Clear
4:55 PM 35.6 °F 24.5 °F 21.2 °F 56% 29.79 in 10.0 mi South 20.7 mph 24.2 mph N/A   Clear
5:14 PM 35.6 °F 24.8 °F 21.2 °F 56% 29.77 in 10.0 mi South 19.6 mph 26.5 mph N/A   Clear
5:35 PM 37.4 °F 27.2 °F 21.2 °F 52% 29.76 in 10.0 mi SSE 19.6 mph - N/A   Clear
5:55 PM 37.4 °F 27.5 °F 23.0 °F 56% 29.76 in 10.0 mi SSE 18.4 mph - N/A   Clear
6:14 PM 37.4 °F 27.5 °F 23.0 °F 56% 29.75 in 10.0 mi SSE 18.4 mph - N/A   Clear
6:35 PM 37.4 °F 27.5 °F 23.0 °F 56% 29.74 in 10.0 mi SSE 18.4 mph - N/A   Clear
6:55 PM 37.4 °F 26.9 °F 23.0 °F 56% 29.73 in 10.0 mi SSE 20.7 mph 25.3 mph N/A   Clear
7:15 PM 37.4 °F 27.2 °F 23.0 °F 56% 29.72 in 10.0 mi SSE 19.6 mph 25.3 mph N/A   Clear
7:35 PM 37.4 °F 26.9 °F 24.8 °F 60% 29.71 in 10.0 mi SSE 20.7 mph 25.3 mph N/A   Clear
7:55 PM 39.2 °F 29.8 °F 24.8 °F 56% 29.70 in 10.0 mi SSE 18.4 mph - N/A   Scattered Clouds
8:15 PM 39.2 °F 29.6 °F 24.8 °F 56% 29.70 in 10.0 mi SSE 19.6 mph - N/A   Clear
8:35 PM 39.2 °F 29.8 °F 24.8 °F 56% 29.69 in 10.0 mi South 18.4 mph - N/A   Clear
8:55 PM 39.2 °F 31.2 °F 26.6 °F 61% 29.68 in 10.0 mi South 13.8 mph 19.6 mph N/A   Scattered Clouds
9:15 PM 39.2 °F 31.2 °F 26.6 °F 61% 29.69 in 10.0 mi South 13.8 mph 18.4 mph N/A   Clear
9:35 PM 39.2 °F 32.5 °F 26.6 °F 61% 29.70 in 10.0 mi South 10.4 mph - N/A   Clear
9:54 PM 39.2 °F 32.0 °F 26.6 °F 61% 29.70 in 10.0 mi South 11.5 mph - N/A   Scattered Clouds
10:15 PM 39.2 °F 31.2 °F 26.6 °F 61% 29.68 in 10.0 mi South 13.8 mph - N/A   Scattered Clouds
10:35 PM 39.2 °F 33.0 °F 26.6 °F 61% 29.69 in 10.0 mi South 9.2 mph - N/A   Clear
10:54 PM 39.2 °F 32.5 °F 26.6 °F 61% 29.68 in 10.0 mi South 10.4 mph - N/A   Scattered Clouds
11:15 PM 39.2 °F 33.0 °F 28.4 °F 65% 29.69 in 10.0 mi SSW 9.2 mph - N/A   Mostly Cloudy
11:35 PM 39.2 °F 33.0 °F 28.4 °F 65% 29.68 in 10.0 mi South 9.2 mph - N/A   Drizzle
11:55 PM 39.2 °F 33.6 °F 30.2 °F 70% 29.68 in 10.0 mi South 8.1 mph - N/A   Light Drizzle